Printer-friendly version

IAU Minor Planet Center

Minor Planet Center

MPEC 2004-G34 : COMET C/2004 DZ61 (CATALINA-LINEAR)

The following Minor Planet Electronic Circular may be linked-to from your own Web pages, but must not otherwise be redistributed electronically.


Read MPEC 2004-G33 Read MPEC 2004-G35


M.P.E.C. 2004-G34                                Issued 2004 Apr. 14, 22:10 UT

     The Minor Planet Electronic Circulars contain information on unusual
         minor planets and routine data on comets.  They are published
   on behalf of Commission 20 of the International Astronomical Union by the
          Minor Planet Center, Smithsonian Astrophysical Observatory,
                          Cambridge, MA 02138, U.S.A.

         Supported in part by the Steven and Michele Kirsch Foundation
             Prepared using the Tamkin Foundation Computer Network

                              MPC@CFA.HARVARD.EDU
          URL http://cfa-www.harvard.edu/iau/mpc.html  ISSN 1523-6714

                      COMET C/2004 DZ61 (CATALINA-LINEAR)

Observations:
    CK04D61Z  C2004 03 16.41565 12 27 44.37 +18 29 56.2          17.3 T EG034568
    CK04D61Z  C2004 03 16.55727 12 27 38.07 +18 37 16.0                 EG034568
    CK04D61Z  C2004 03 17.51122 12 26 58.02 +19 26 29.3          17.3 T EG034568
    CK04D61Z  C2004 03 17.53047 12 26 57.16 +19 27 27.8                 EG034568
    CK04D61Z  C2004 03 30.90982 12 16 08.19 +30 31 58.1                 EG034084
    CK04D61Z  C2004 04 02.94422 12 13 29.87 +32 48 31.7                 EG034084
    CK04D61Z  C2004 04 12.24439 12 05 42.05 +38 58 04.1          18.2 N EG034704
    CK04D61Z  C2004 04 12.25565 12 05 41.49 +38 58 28.1          18.5 N EG034704
    CK04D61Z  C2004 04 12.26684 12 05 40.91 +38 58 51.3          18.2 N EG034704
    CK04D61Z  C2004 04 12.27811 12 05 40.37 +38 59 15.6          18.5 N EG034704
    CK04D61Z  C2004 04 12.28933 12 05 39.78 +38 59 39.3          18.7 N EG034704

Observer details:
084 Pulkovo.  Observers A. V. Devyatkin, A. S. Bekhteva, D. L. Gorshanov,
    V. V. Kouprianov, E. Yu. Aleshkina, M. Yu. Sidorov.  Measurers A. V.
    Devyatkin, G. D. Baturina, A. S. Bekhteva.  0.32-m f/3.2 reflector + CCD.
568 Mauna Kea.  Observers S. S. Sheppard, Y. R. Fernandez, D. Jewitt.
    Measurer S. S. Sheppard.  2.2-m University of Hawaii reflector + CCD.
704 Lincoln Laboratory ETS, New Mexico.  Observers M. Blythe, F. Shelly,
    M. Bezpalko, R. Huber, L. Manguso, D. Torres, R. Kracke, M. McCleary,
    H. Stange, A. Milner.  Measurers J. Stuart, R. Sayer, J. Evans, J. Kommers.
    1.0-m f/2.15 reflector + CCD.

Orbital elements:
    C/2004 DZ61 (Catalina-LINEAR)
Epoch 2004 June 4.0 TT = JDT 2453160.5
T 2004 May 26.85761 TT                                  MPC
q   2.0133524            (2000.0)            P               Q
z  +0.0219032      Peri.   44.46118     -0.74269070     +0.65962822
 +/-0.0000012      Node   172.79224     -0.42499638     -0.59741507
e   0.9559012      Incl.   66.81019     +0.51748295     +0.45605464
Residuals in seconds of arc
040218 703  0.6+  0.2+    040225 118  0.2-  0.3+    040229 673  0.7+  0.7+
040218 703  0.9-  0.1+    040225 118  0.2+  0.4-    040229 673  0.9+  1.2+
040218 703  0.7-  0.1+    040225 143  0.7-  0.0     040229 673  0.8+  1.4+
040218 703  0.9-  0.2-    040225 143  0.9-  0.6-    040229 673 (1.0+  2.6+)
040219 704  0.6+  0.7+    040225 143  0.2-  0.1+    040229 673 (1.1+  2.7+)
040219 704  0.3+  0.7+    040226 012  0.1+  0.8-    040229 926  0.1+  0.1+
040219 704  0.7-  0.1-    040226 012  0.3+  1.0-    040229 926  0.2+  0.1+
040219 704  1.2+  0.3+    040226 012  0.2+  0.3+    040229 926  0.1+  0.1-
040219 704  0.8-  0.8-    040226 012  0.0   0.0     040229 926  0.1+  0.2-
040220 118  0.5-  0.3-    040226 012  0.7+  0.1+    040229 926  0.1+  0.1-
040220 118  0.2+  0.4-    040226 012  0.2+  0.5-    040301 012  0.7+  1.1-
040220 118  0.2-  0.3-    040226 012  0.5+  0.6-    040301 012  1.0-  0.2-
040220 118  0.3-  0.6-    040226 012 (1.4-  2.1-)   040301 012  0.3-  1.3-
040220 118  0.1-  0.5-    040226 649  0.1-  0.4-    040301 012  0.2-  1.2-
040220 A50  0.9+  0.8+    040226 649  0.2-  0.1-    040301 012  0.2+  0.6-
040220 A50  1.0+  0.3+    040226 649  0.1-  0.1-    040301 012  0.4-  1.2+
040220 A50  0.3+  0.1+    040226 649  0.5-  0.1-    040301 012  1.4+  0.8-
040220 A50  0.6+  0.2-    040226 649  0.2-  0.2-    040301 012  0.4-  1.2-
040220 A50  0.5+  0.2-    040226 448  0.3-  0.5-    040301 704  0.3+  1.0+
040220 246  1.3+  0.7+    040226 750  0.3-  0.3-    040301 704  0.1+  0.3+
040220 246  0.1-  0.7+    040226 448  0.2-  0.3-    040301 704  0.3+  1.0+
040220 246  0.7+  0.4+    040226 H36  0.4+  0.9-    040301 704  0.3-  0.1-
040220 246  0.3+  0.5+    040226 750  0.0   0.9+    040301 704  0.8+  0.4+
040221 J95  0.9-  0.2+    040226 448  0.2-  0.3-    040301 704  0.4+  0.1-
040221 J95  0.1-  0.3+    040226 H36  1.0-  0.5+    040301 704  0.3-  0.6+
040221 J95  0.2-  0.4+    040226 704  0.4+  0.5-    040301 926  0.2+  0.0
040221 649  0.2-  0.4-    040226 704  1.2-  0.0     040301 926  0.3+  0.2-
040221 649  0.2-  0.6-    040226 H36  0.4-  0.2-    040301 704  0.3+  0.2+
040221 649  0.0   0.1-    040226 750  0.5-  0.5+    040301 926  0.1+  0.2-
040221 649  0.0   0.4-    040226 704  0.6+  0.1+    040301 704  0.1+  0.2+
040221 H36  0.3+  0.7-    040226 704  0.4+  0.1+    040311 644  0.1+  0.1-
040221 H36  0.9+  0.2-    040226 750  0.9-  0.4-    040311 644  0.1-  0.1-
040221 H36  0.5-  0.4+    040226 704  0.1-  0.2-    040311 644  0.0   0.0
040221 A50  0.4-  0.4+    040226 704  0.3+  0.0     040314 704  0.2+  0.3+
040221 A50  1.1-  0.2+    040226 704  0.2+  0.3+    040314 704  0.6+  0.5+
040221 A50  0.2-  0.2-    040226 704  0.1+  0.1-    040314 704  0.5+  0.8+
040221 A50  0.2+  0.9+    040226 704  0.3+  0.1+    040314 704  0.1+  0.5+
040221 A50 (2.1-  0.3-)   040226 926  0.0   0.3-    040314 J87  0.7-  0.4-
040221 A50 (2.9-  0.8-)   040226 926  0.1+  0.1-    040314 J87  0.2-  1.3-
040222 493  0.1+  0.3+    040226 926  0.2+  0.3+    040314 J87  0.2-  0.3-
040222 493  0.4-  0.0     040226 704  0.6+  0.0     040314 J87  0.1-  0.6-
040222 493  0.5-  0.1+    040226 704  0.6+  0.1+    040314 A41  0.4-  0.2+
040223 620  0.4-  0.5-    040226 704  0.5+  0.4+    040314 A41  0.8-  0.4+
040223 620  0.2-  0.2-    040226 704  0.1+  0.3-    040315 A41  0.0   0.4-
040223 785  1.7-  0.7-    040226 704  0.3+  0.4-    040315 360  0.2-  0.2-
040223 704  0.4+  0.3-    040226 704  0.2+  0.1-    040315 360  0.2-  0.2-
040223 785  1.0-  0.7-    040227 951  0.4+  0.5+    040315 360  0.3-  0.2-
040223 704  0.1+  0.5-    040227 951  0.5-  0.2-    040316 568  0.2-  0.9+
040223 785 (3.9-  2.3-)   040227 J95  0.5-  0.5-    040316 568 (0.4-  2.4+)
040223 704  0.3+  0.1+    040227 J95  0.2-  0.5-    040317 568  0.0   0.7+
040223 704  0.4+  0.6-    040227 J95  0.3+  0.0     040317 568  0.2+  0.4-
040223 704  0.2+  0.1-    040227 649  0.5-  0.3-    040318 703  0.2-  0.2-
040223 704  0.2+  0.5-    040227 649  0.1+  0.4-    040318 703  0.1-  0.3-
040223 704  1.1+  0.6+    040227 649  0.5-  0.3+    040318 703  0.6-  0.5-
040224 620  0.3-  0.4-    040227 854  0.9+  0.4-    040318 703  0.5-  0.1+
040224 620  0.2-  0.5-    040227 854  1.0+  0.3+    040318 J87  0.2-  0.0
040224 620  0.1-  0.1-    040227 854  0.8+  0.2+    040318 J87  0.0   0.2-
040224 587  0.3-  0.8-    040227 704  0.4+  0.4-    040318 J87  0.4-  0.2+
040224 587  0.0   0.2+    040227 704  0.3-  0.4-    040320 J87  0.0   0.3-
040224 587  1.0-  0.9+    040227 704  0.1+  0.0     040320 J87  0.1+  0.0
040225 113  0.1+  0.5+    040227 704  0.0   0.2+    040320 J87  0.6-  0.8-
040225 113  0.2+  0.7+    040227 704  0.6-  1.4+    040321 941  0.1-  0.1-
040225 113  0.1-  0.1+    040227 H06  0.7-  1.2-    040321 941  0.0   0.1-
040225 704  0.2+  0.1+    040227 H06  0.3-  1.3-    040321 941  0.1-  0.1-
040225 704  0.6+  0.6+    040227 H06  0.1+  0.3-    040321 941  0.0   0.0
040225 704  0.2+  0.4+    040227 926  0.4+  0.1-    040321 941  0.1-  0.2-
040225 704  0.0   0.7+    040227 926  0.4+  0.1+    040329 704  0.3+  0.3+
040225 704  0.5+  0.0     040227 926  0.3+  0.1+    040329 704  0.2+  0.2+
040225 704  0.9-  0.4+    040228 850  0.4-  0.9-    040329 704  0.2+  0.1+
040225 704  1.4+  1.3+    040228 850  0.8-  0.4-    040329 704  0.3+  0.4+
040225 704  0.0   0.0     040228 850  0.7-  0.1+    040329 704  0.0   0.2+
040225 704  0.1+  0.5+    040228 850  0.4+  0.1+    040329 H41  0.7-  1.3-
040225 704  0.3-  0.0     040228 H36  0.5-  1.0+    040329 H41  1.6-  0.7-
040225 704  0.1-  0.1+    040228 H36  0.0   1.5-    040329 H41  0.8-  0.5+
040225 704  0.2+  0.1+    040228 670  0.0   0.9+    040329 H41  0.2+  0.3-
040225 704  0.6-  0.1+    040228 H36  0.8-  1.4+    040329 104  1.2-  0.8+
040225 704  0.6+  0.3+    040228 670  0.1-  0.4-    040329 104  0.4+  1.5+
040225 704  0.1+  0.2+    040229 113  0.3+  0.7+    040329 104  0.1+  1.6+
040225 H06  0.3-  0.3-    040229 113  0.2+  0.1+    040330 084  0.5+  0.2-
040225 H06  0.0   0.2-    040229 113  1.0+  0.4+    040402 084  0.1+  0.7-
040225 673  0.3+  2.0+    040229 176  0.4-  0.3-    040407 644  0.1+  0.2+
040225 H06  0.2+  0.7-    040229 176  0.4-  0.3-    040407 644  0.1+  0.2+
040225 673  0.4+  0.7+    040229 176  0.2-  0.3-    040407 644  0.3-  0.2+
040225 673  0.4+  1.4+    040229 176  0.1-  0.4-    040412 704  0.7+  0.0
040225 673  0.4+  0.2+    040229 J95  0.2-  0.3-    040412 704  0.8+  0.1+
040225 926  0.1+  0.4-    040229 J95  0.4-  0.5-    040412 704  0.6+  0.5-
040225 926  0.1-  0.2+    040229 J95  0.2-  0.4-    040412 704  0.9+  0.1-
040225 926  0.1-  0.5+    040229 673  0.6+  0.4+    040412 704  0.5+  0.2-

